Flag for U.S.A. Weather past 2 weeks in Cape Coral, Florida, U.S.A.

Now
89 °F

Passing clouds.


Feels Like: 102 °F
Forecast: 77 / 87 °F
Wind: 9 mph from Southwest

Location: Page Field

Current Time: Aug 2, 2015 at 12:22:43 PM

Latest Report: Aug 2, 2015 at 11:53 AM


Visibility: 10 mi

Pressure: 29.97 "Hg

Humidity: 68%

Dew point: 77 °F

Location of Cape CoralLocation

Historic Weather in Cape Coral — Graph

°F

Cape Coral temperature yesterday

Maximum temperature yesterday: 88 °F (at 11:53 AM)
Minimum temperature yesterday: 73 °F (at 3:53 AM)
Average temperature yesterday: 81 °F

Past Weeks' High & Low Weather Summary

 TemperatureHumidityPressure
High93 °F (Jul 23, 1:53 PM)100% (Jul 26, 2:53 PM)30.08 "Hg (Jul 26, 2:53 PM)
Low73 °F (Jul 26, 8:53 AM)50% (Jul 20, 3:53 PM)29.86 "Hg (Jul 26, 3:53 AM)
Average82 °F80%29.99 "Hg
* Reported Jul 18 10:53 AM — Aug 2 10:53 AM, Cape Coral, Weather by CustomWeather, © 2015

Note: Actual official high and low records may vary slightly from our data, if they occured in-between our weather recording intervals... More about our weather records

Advertising

Cape Coral weather history for previous 24 hours

 ConditionsComfort  
Time TempWeatherWind HumidityBarometerVisibility
10:53 AM
Sun, Aug 2
86 °FPassing clouds.10 mph72%29.97 "Hg10 mi
9:53 AM85 °FScattered clouds.8 mph77%29.96 "Hg10 mi
8:53 AM82 °FSunny.6 mph85%29.96 "Hg10 mi
7:53 AM80 °FSunny.6 mph87%29.94 "Hg9 mi
6:53 AM79 °FClear.5 mph94%29.93 "Hg10 mi
5:53 AM78 °FClear.5 mph93%29.92 "Hg9 mi
4:53 AM76 °FPassing clouds.No wind91%29.93 "Hg10 mi
3:53 AM77 °FClear.No wind85%29.93 "Hg10 mi
2:53 AM78 °FClear.3 mph76%29.96 "Hg10 mi
1:53 AM79 °FClear.6 mph74%29.97 "Hg10 mi
12:53 AM79 °FPassing clouds.3 mph72%29.99 "Hg10 mi
11:53 PM
Sat, Aug 1
83 °FClear.No wind82%30.00 "Hg10 mi
10:53 PM83 °FClear.3 mph82%29.99 "Hg10 mi
9:53 PM83 °FClear.5 mph82%29.97 "Hg10 mi
8:53 PM84 °FSunny.3 mph80%29.95 "Hg10 mi
7:53 PM85 °FScattered clouds.8 mph77%29.95 "Hg10 mi
6:53 PM86 °FPassing clouds.9 mph75%29.94 "Hg10 mi
5:53 PM86 °FScattered clouds.12 mph75%29.93 "Hg10 mi
4:53 PM87 °FScattered clouds.14 mph72%29.94 "Hg10 mi
3:53 PM88 °FScattered clouds.14 mph70%29.94 "Hg10 mi
2:53 PM88 °FSunny.14 mph73%29.96 "Hg10 mi
1:53 PM86 °FPassing clouds.8 mph75%29.98 "Hg10 mi
1:04 PM87 °FThundershowers. Broken clouds.7 mph69%29.99 "Hg10 mi
12:53 PM86 °FPartly sunny.8 mph70%29.99 "Hg10 mi
Weather by CustomWeather, © 2015

See weather overviewHow to use our weather pages